Orbital elements:
2024 EP3                                                 Earth MOID = 0.0207 AU
Epoch 2024 Mar. 31.0 TT = JDT 2460400.5                 Veres                   
M 309.85127              (2000.0)            P               Q                  
n   0.90887496     Peri.  255.68307     -0.30793116     +0.95125120             
a   1.0555204      Node   356.24636     -0.73876849     -0.25053178             
e   0.1051202      Incl.   15.32985     -0.59949940     -0.17987491             
P   1.08           H   24.69          G   0.15           U   6                  
Residuals in seconds of arc
240311 703  0.5-  0.1+    240312 958  0.0   0.2-    240312 Z84  0.0   0.1+
240311 703  0.9+  0.1-    240312 204  0.0   0.0     240312 H21  0.2+  0.2-
240311 703  0.2+  0.2+    240312 958  0.8+  0.3+    240312 H21  0.1+  0.2-
240311 I52  0.1+  0.0     240312 033  0.4+  0.1+    240312 H21  0.1-  0.1-
240311 I52  0.0   0.1-    240312 033  0.0   0.1-    240312 H21  0.0   0.2-
240311 I52  0.0   0.2-    240312 033  0.2+  0.0     240312 H21  0.2+  0.1-
240311 I52  0.2-  0.1+    240312 033  0.3+  0.0     240312 I52  0.4-  0.1-
240311 474  0.6-  0.7+    240312 033  0.1+  0.2+    240312 I52  0.3-  0.3-
240311 474  0.0   1.2-    240312 K74  0.2+  0.2+    240312 I52  0.0   0.1-
240311 474  0.5-  0.3+    240312 K74  0.4+  0.3+    240312 I52  0.0   0.1+
240311 474  0.6-  0.0     240312 Y66  0.4-  0.0     240312 595  0.1+  0.2+
240311 474  0.1-  0.3+    240312 Y66  0.1-  0.4+    240312 595  0.2-  0.5-
240311 474  0.6+  0.4+    240312 Y66  0.4-  0.2+    240312 I93  0.6+  0.2-
240311 474  0.3-  0.4-    240312 Y66  0.4-  0.3+    240312 595  0.0   0.3+
240311 474  0.1-  0.2-    240312 Y66  0.2-  0.4+    240312 I93  0.1+  0.4+
240311 474  0.5+  0.2+    240312 Y66  0.5-  0.6+    240312 I93  0.0   0.3+
240311 B42  0.2-  0.0     240312 Y66  0.3-  0.4+    240312 L01  0.2+  0.0
240311 B42  0.1+  0.1+    240312 033  0.6+  0.3-    240312 L01  0.0   0.2+
240311 B42  0.3+  0.2-    240312 033  0.2+  0.1+    240312 L01  0.1+  0.3+
240311 K19  0.4-  0.2+    240312 033  0.2+  0.1-    240312 L01  0.2+  0.1-
240311 M28  0.1-  1.3-    240312 033  0.2+  0.1+    240312 L01  0.0   0.1+
240311 M28  0.1+  0.6-    240312 033  0.3+  0.1+    240313 033  0.0   0.1-
240311 K19  0.2+  0.8+    240312 C95  0.6+  0.8-    240313 033  0.5+  0.2+
240311 958  0.4+  0.6+    240312 C95  0.6+  0.0     240313 033  0.1-  0.1-
240311 M28  0.2-  0.6-    240312 Z84  0.1+  0.1+
240312 204  0.0   0.2+    240312 Z84  0.1+  0.3+

Ephemeris:
2024 EP3                 a,e,i = 1.06, 0.11, 15                  q = 0.9446
Date    TT    R. A. (2000) Decl.     Delta      r    Elong.  Phase     V
2024 02 12    14 20 40.5 +41 04 40   0.1829  1.0742   113.9    57.2    23.2
...
2024 02 27    14 34 25.4 +35 15 48   0.1077  1.0480   119.9    55.0    22.0
...
2024 03 06    14 36 08.0 +26 21 10   0.06841 1.0339   126.1    50.8    20.8
...
2024 03 12    14 31 57.5 +08 39 32   0.04196 1.0234   134.2    44.1    19.5
2024 03 13    14 30 22.9 +03 27 01   0.03827 1.0217   135.7    42.8    19.3
2024 03 14    14 28 23.9 -02 48 09   0.03498 1.0199   136.7    42.0    19.1
...
2024 03 20    13 55 29.5 -58 42 52   0.03011 1.0097   116.8    61.7    19.3
...
2024 03 28    04 21 24.8 -78 32 45   0.05845 0.9967    87.0    89.7    21.7
...
2024 04 12    03 11 05.6 -62 12 48   0.1275  0.9749    73.9    98.8    23.7

M. P. C. Staff               (C) Copyright 2024 MPC           M.P.E.C. 2024-E167





More information about the Iaude mailing list